User: anonymous
Location: Unspecified
(0.0000°N, 0.0000°E)
Time: 13:09:04
(UTC+00:00)
Language:

OPTUS D2 - Orbit

View from above orbital plane
View from above orbital plane
View from above satellite
View from above satellite

Ground track
Ground track

The orbit data is extracted from the following two-line orbital elements,

1 32252U 07044A   14208.57630799 -.00000197  00000-0  00000+0 0  4701
2 32252 000.0168 048.9365 0002879 086.9623 168.7528 01.00269487 24961
Epoch (UTC): 27 July 2014 13:49:53
Eccentricity: 0.0002879
inclination: 0.0168°
perigee height: 35775 km
apogee height: 35799 km
right ascension of ascending node: 48.9365°
argument of perigee: 86.9623°
revolutions per day: 1.00269487
mean anomaly at epoch: 168.7528°
orbit number at epoch: 2496

The dashed part of the orbit path shows where the satellite is in the earth's shadow,  

DLR